#timestamp,LO_Frequency,Hit 
1502996415.2,286047000.5,N
1502996435.0,286047000.6,N
1502996436.0,286047000.6,N
1502996455.8,286047001.0,N
1502996475.6,286046998.4,N
1502996495.4,286046998.4,N
1502996515.3,286046998.7,N
1502996535.1,286046999.7,N
1502996555.8,286047002.5,N
1502996575.7,286046999.7,N
1502996595.5,286047000.9,N
1502996615.3,286047000.8,N
1502996635.2,286047000.8,N
1502996655.9,286047000.3,N
1502996675.7,286047002.0,N
1502996695.6,286047002.6,N
1502996715.4,286047001.7,N
1502996735.2,286047002.0,N
1502996755.0,286047003.0,N
1502996755.9,286047003.0,N
1502996775.8,286047003.3,N
1502996795.6,286047004.0,N
1502996815.4,286047004.0,N
1502996835.3,286047004.2,N
1502996855.1,286047001.3,N
1502996875.8,286047002.5,N
1502996895.7,286047000.0,N
1502996915.5,286046999.9,N
1502996935.3,286047001.2,N
1502996955.2,286046998.4,N
1502996975.9,286046999.2,N
1502996995.7,286047002.2,N
1502997015.6,286047002.5,N
1502997035.4,286047002.3,N
1502997055.2,286047004.0,N
1502997075.0,286047002.5,N
1502997075.9,286047002.5,N
1502997095.8,286046998.6,N
1502997115.6,286046998.6,N
1502997135.4,286046999.7,N
1502997155.3,286047001.6,N
1502997175.1,286047002.0,N
1502997195.8,286047001.7,N
1502997215.7,286047004.2,N
1502997235.5,286047003.1,N
1502997255.3,286047001.8,N
1502997275.2,286047004.4,N
1502997295.9,286047004.1,N
1502997315.7,286047003.9,N
1502997335.6,286047001.9,N
1502997355.4,286047001.6,N
1502997375.2,286047004.0,N
1502997395.1,286047005.2,N
1502997396.0,286047005.2,N
1502997415.8,286047005.5,N
1502997435.6,286047004.9,N
1502997455.4,286047005.3,N
1502997475.3,286047003.7,N
1502997495.1,286047006.0,N
1502997515.9,286047007.2,P
1502997535.7,286047001.8,N
1502997555.5,286047002.8,N
1502997575.3,286046999.9,N
1502997595.2,286047000.3,N
1502997615.0,286046998.1,N
1502997615.9,286046998.1,N
1502997635.7,286046998.7,N
1502997655.6,286047000.3,N
1502997675.4,286047002.5,N
1502997695.2,286047002.1,N
1502997715.1,286047005.4,N
1502997716.0,286047005.4,N
1502997735.2,286047003.5,N
1502997755.0,286047002.0,N
1502997756.0,286047002.0,N
1502997775.8,286047000.0,N
1502997795.6,286047001.8,N
1502997815.4,286047001.7,N
1502997835.3,286047003.9,N
1502997855.1,286047003.8,N
1502997875.8,286046999.8,N
1502997895.7,286047004.7,N
1502997915.5,286047007.2,P
1502997935.3,286047004.7,N
1502997955.2,286047004.6,N
1502997975.0,286047007.6,P
1502997975.9,286047007.6,P
1502997995.8,286047000.0,N
1502998015.6,286046999.5,N
1502998035.4,286046997.1,N
1502998055.2,286046996.7,N
1502998075.1,286046997.8,N
1502998076.0,286046997.8,N
1502998095.8,286047000.6,N
1502998115.6,286047000.1,N
1502998135.5,286047000.5,N
1502998155.3,286046998.3,N
1502998175.1,286046998.7,N
1502998195.9,286047000.7,N
1502998215.7,286046999.0,N
1502998235.5,286047002.6,N
1502998255.4,286047001.6,N
1502998275.2,286046999.9,N
1502998295.0,286047002.8,N
1502998295.9,286047002.8,N
1502998315.8,286047000.6,N
1502998335.6,286047000.3,N
1502998355.4,286047000.3,N
1502998375.2,286047002.8,N
1502998395.1,286047000.0,N
1502998396.0,286047000.0,N
1502998415.8,286047001.2,N
1502998435.6,286046999.0,N
1502998455.5,286046999.5,N
1502998475.3,286046997.0,N
1502998495.1,286047001.0,N
1502998515.9,286047001.5,N
1502998535.7,286047001.0,N
1502998555.5,286046998.2,N
1502998575.4,286046998.1,N
1502998595.2,286047002.4,N
1502998615.0,286047002.8,N
1502998615.9,286047002.8,N
1502998635.8,286046998.4,N
1502998655.6,286047000.3,N
1502998675.4,286047001.4,N
1502998695.2,286047003.9,N
1502998715.1,286047003.9,N
1502998716.0,286047003.9,N
1502998735.8,286047004.0,N
1502998755.6,286047004.2,N
1502998775.5,286047001.8,N
1502998795.3,286047004.1,N
1502998815.1,286047003.7,N
1502998835.9,286047003.9,N
1502998855.7,286047004.8,N
1502998875.5,286047004.4,N
1502998895.4,286047005.6,N
1502998915.2,286047007.9,P
1502998935.0,286047007.2,N
1502998935.9,286047007.2,N
1502998955.8,286047007.3,N
1502998975.6,286047005.0,N
1502998995.4,286047005.1,N
1502999015.3,286047004.9,N
1502999035.1,286047007.0,P
1502999055.8,286047002.4,P
1502999075.7,286047002.4,N
1502999095.5,286047000.5,N
1502999115.3,286046998.3,N
1502999135.2,286047000.7,N
1502999155.9,286047002.1,N
1502999175.7,286047002.4,N
1502999195.6,286046998.1,N
1502999215.4,286047000.7,N
1502999235.2,286046998.8,N
1502999255.0,286046997.1,N
1502999256.0,286046997.1,N
1502999275.8,286046998.8,N
1502999295.6,286047002.4,N
1502999315.4,286047002.6,N
1502999335.3,286047001.8,N
1502999355.1,286047002.5,N
1502999375.8,286047000.7,N
1502999395.7,286047000.9,N
1502999415.5,286046999.5,N
1502999435.3,286046997.9,N
1502999455.2,286046998.0,N
1502999475.9,286046996.7,N
1502999495.7,286046998.4,N
1502999515.6,286046999.5,N
1502999535.4,286046998.5,N
1502999555.2,286046999.2,N
1502999575.0,286046999.1,N
1502999576.0,286046999.1,N
1502999595.8,286046998.8,N
1502999615.6,286046999.0,N
1502999635.4,286046996.6,N
1502999655.3,286046999.3,N
1502999675.1,286046998.6,N
1502999695.8,286046998.8,N
1502999715.7,286046999.3,N
1502999735.5,286046996.5,N
1502999755.3,286046998.9,N
1502999775.2,286046996.6,N
1502999795.9,286046998.8,N
1502999815.7,286046999.7,N
1502999835.6,286047002.1,N
1502999855.4,286047001.8,N
1502999875.2,286047002.6,N
1502999895.1,286047000.0,N
1502999896.0,286047000.0,N
1502999915.8,286047001.0,N
1502999935.6,286046998.4,N
1502999955.4,286047000.0,N
1502999975.3,286047001.1,N
1502999995.1,286046999.5,N
